Date,TemperatureHighF,TemperatureAvgF,TemperatureLowF,DewpointHighF,DewpointAvgF,DewpointLowF,HumidityHigh,HumidityAvg,HumidityLow,PressureMaxIn,PressureMinIn,WindSpeedMaxMPH,WindSpeedAvgMPH,GustSpeedMaxMPH,PrecipitationSumIn
2013-1-1,65.3,53.8,46.5,65.3,52.7,43.7,100,96,90,30.19,29.91,7,0,8,2.12
2013-1-2,46.5,42.4,39.1,44.0,39.9,37.2,94,91,87,30.31,30.17,6,0,7,0.00
2013-1-3,56.0,44.0,32.7,41.1,37.0,31.9,98,78,47,30.42,30.29,8,0,8,0.00
2013-1-4,48.6,45.1,41.1,40.8,38.2,36.6,89,77,66,30.51,30.34,6,0,6,0.00
2013-1-5,44.9,43.6,41.6,44.4,42.8,40.3,99,97,86,30.40,30.25,4,0,4,0.54
2013-1-6,59.4,46.2,35.1,48.4,43.0,34.6,99,90,62,30.35,30.24,7,0,7,0.00
2013-1-7,58.6,45.2,32.9,46.4,40.7,32.4,100,86,58,30.33,30.12,6,0,6,0.00
2013-1-8,63.1,55.4,48.2,62.8,54.2,44.6,100,96,85,30.12,29.93,11,1,11,0.56
2013-1-9,67.4,64.1,61.3,67.1,63.9,61.0,100,99,98,30.06,29.90,12,1,12,1.26
2013-1-10,69.1,61.1,51.1,64.8,59.2,50.3,100,94,71,30.09,29.93,9,0,10,0.31
2013-1-11,73.9,58.5,42.9,64.4,54.0,42.9,100,87,52,30.05,29.91,7,0,7,0.00
2013-1-12,74.2,72.0,64.9,71.6,70.6,64.9,100,95,89,29.92,29.74,12,2,15,0.07
2013-1-13,72.3,50.1,42.2,70.5,48.3,41.3,99,94,88,30.14,29.78,10,1,13,0.36
2013-1-14,44.2,40.7,37.9,42.3,39.1,37.0,98,94,91,30.24,30.06,9,1,9,0.23
2013-1-15,39.1,36.5,34.2,37.2,35.4,33.4,98,96,93,30.15,30.03,7,0,8,0.05
2013-1-16,53.1,40.4,30.9,39.2,33.4,28.5,97,79,44,30.26,30.11,10,0,13,0.00
2013-1-17,62.7,41.2,26.0,40.8,32.9,25.5,99,77,38,30.47,30.25,11,0,11,0.00
2013-1-18,63.3,43.2,30.8,42.4,35.2,29.2,100,78,29,30.56,30.38,5,0,6,0.00
2013-1-19,68.3,46.3,30.1,51.0,41.5,29.6,100,86,47,30.38,30.20,7,0,9,0.00
2013-1-20,71.5,51.4,37.1,55.1,46.0,36.8,100,85,47,30.29,30.12,8,0,8,0.00
2013-1-21,71.5,52.2,39.5,55.3,47.4,39.2,100,86,49,30.25,30.15,4,0,5,0.00
2013-1-22,70.3,52.3,40.3,52.7,46.5,38.6,98,83,52,30.36,30.22,9,0,9,0.00
2013-1-23,74.5,56.0,40.3,60.3,51.2,39.9,100,86,55,30.37,30.24,12,0,12,0.00
2013-1-24,72.5,62.0,53.6,66.7,60.4,52.8,100,95,81,30.31,30.16,10,0,10,0.00
2013-1-25,77.5,65.1,57.6,66.0,61.3,57.0,100,89,61,30.21,30.08,14,1,14,0.00
2013-1-26,77.9,63.4,55.6,66.8,59.6,55.3,100,89,57,30.22,30.11,10,0,10,0.00
2013-1-27,75.0,65.4,55.7,66.2,62.1,55.1,100,90,73,30.17,30.08,12,1,12,0.00
2013-1-28,77.6,70.5,66.3,68.0,66.6,64.3,96,88,70,30.14,30.00,13,1,13,0.00
2013-1-29,75.6,71.5,58.8,71.5,69.2,57.7,97,93,84,30.01,29.65,18,2,19,0.48
2013-1-30,58.8,52.5,35.2,57.6,40.2,30.9,98,66,37,30.23,29.74,20,2,22,0.04
2013-1-31,66.2,48.1,30.0,43.1,34.1,28.4,99,65,28,30.32,30.21,12,1,12,0.00